Starlink 35342

operational
NORAD ID: 66182 Int'l Des: 2025-243 Owner: SPXS Country: US Constellation: starlink
LEOCIRCULAR

About Starlink 35342

Description loading...

Live Position

Loading 3D Globe...

Upcoming Passes

Altitude History

Altitude vs Time

uPlot chart will show altitude changes over time

Two-Line Element Set

1 66182C 25243E 25299.73381944 .00847230 00000+0 13831-2 0 2999
2 66182 53.1580 157.0833 0009014 275.4735 7.8375 16.01642219 14
Epoch: Oct 26, 2025 • Age: 117 hours

Current Status

Altitude 256.0 km
Velocity 7.76 km/s
Sub-Earth Point 46.01°N, 89.55°W
Launch Date Oct 26, 2025
Age 4 days
Type internet

Technical Details

Classification Payload
Mass 575.00 kg
Dry Mass 530.00 kg
Total Mass 575.00 kg
Length 0.30 m
Diameter 4.10 m
Span 29.00 m
Shape Box + pan
Manufacturer SPXS
Bus Type Starlink V2MO
Phase Status In Orbit
Owner/State SPXS/US

Large Constellations

Loading constellations...